Home   Weather   Tiraspol   Past weeks

Flag for Moldova Past Weather in Tiraspol, Moldova — Yesterday and Last 2 Weeks

Now
68 °F

Clear.


Feels Like: 68 °F
Forecast: 56 / 76 °F
Wind: 9 mph from South

Location: Chisinau International Airport

Current Time: Sep 30, 2016 at 9:40:04 PM

Latest Report: Sep 30, 2016 at 9:00 PM


Visibility: 10 mi

Pressure: 30.09 "Hg

Humidity: 60%

Dew Point: 54 °F

Location of TiraspolLocation

Past Weather in Tiraspol — Graph

°F

Tiraspol Temperature Yesterday

Maximum temperature yesterday: 72 °F (at 2:30 PM)
Minimum temperature yesterday: 50 °F (at 1:30 AM)
Average temperature yesterday: 62 °F

High & Low Weather Summary for the Past Weeks

 TemperatureHumidityPressure
High86 °F (Sep 17, 4:00 PM)94% (Sep 20, 4:30 AM)30.36 "Hg (Sep 20, 4:30 AM)
Low43 °F (Sep 22, 3:00 AM)29% (Sep 17, 5:00 PM)29.68 "Hg (Sep 20, 5:00 AM)
Average59 °F63%30.05 "Hg
* Reported Sep 15 8:00 PM — Sep 30 8:30 PM, Tiraspol, Weather by CustomWeather, © 2016

Note: Actual official high and low records may vary slightly from our data, if they occured in-between our weather recording intervals... More about our weather records

Advertising

Tiraspol Weather History for the Previous 24 Hours

Scroll right to see more
 ConditionsComfort  
Time TempWeatherWind HumidityBarometerVisibility
8:30 PM
Fri, Sep 30
70 °FClear.9 mph57%30.09 "Hg10 mi
8:00 PM70 °FClear.9 mph57%30.09 "Hg10 mi
7:30 PM72 °FClear.10 mph53%30.09 "Hg10 mi
7:00 PM72 °FClear.7 mph53%30.09 "Hg10 mi
6:30 PM75 °FSunny.8 mph47%30.09 "Hg10 mi
6:00 PM77 °FSunny.10 mph44%30.09 "Hg10 mi
5:30 PM77 °FSunny.13 mph44%30.09 "Hg10 mi
5:00 PM79 °FSunny.13 mph42%30.09 "Hg10 mi
4:30 PM79 °FSunny.14 mph42%30.09 "Hg10 mi
4:00 PM79 °FSunny.13 mph42%30.09 "Hg10 mi
3:30 PM79 °FSunny.12 mph42%30.09 "Hg10 mi
3:00 PM79 °FPassing clouds.12 mph42%30.09 "HgN/A
2:30 PM79 °FPassing clouds.9 mph45%30.12 "HgN/A
2:00 PM77 °FPassing clouds.10 mph44%30.12 "HgN/A
1:30 PM77 °FPassing clouds.8 mph47%30.12 "HgN/A
1:00 PM75 °FPassing clouds.9 mph47%30.15 "HgN/A
12:30 PM75 °FSunny.7 mph50%30.15 "Hg10 mi
12:00 PM73 °FPassing clouds.6 mph50%30.15 "HgN/A
11:30 AM73 °FPassing clouds.6 mph50%30.15 "HgN/A
11:00 AM72 °FPassing clouds.5 mph53%30.15 "HgN/A
10:30 AM72 °FPassing clouds.5 mph53%30.15 "HgN/A
10:00 AM68 °FPassing clouds.5 mph60%30.15 "HgN/A
9:30 AM68 °FPassing clouds.3 mph60%30.15 "HgN/A
9:00 AM64 °FPassing clouds.2 mph68%30.15 "HgN/A
8:30 AM61 °FScattered clouds.2 mph77%30.12 "HgN/A
8:00 AM59 °FPartly sunny.1 mph77%30.12 "HgN/A
7:30 AM59 °FPartly sunny.No wind77%30.12 "HgN/A
7:00 AM59 °FPassing clouds.2 mph82%30.12 "HgN/A
6:30 AM59 °FPassing clouds.1 mph82%30.12 "HgN/A
6:00 AM61 °FPassing clouds.No wind72%30.12 "HgN/A
5:30 AM59 °FPassing clouds.No wind82%30.12 "HgN/A
5:00 AM59 °FPassing clouds.2 mph77%30.09 "HgN/A
4:30 AM61 °FPassing clouds.1 mph72%30.09 "HgN/A
4:00 AM61 °FPassing clouds.3 mph72%30.12 "HgN/A
3:30 AM61 °FPassing clouds.2 mph72%30.12 "HgN/A
3:00 AM59 °FPassing clouds.3 mph77%30.12 "HgN/A
2:30 AM59 °FPassing clouds.2 mph77%30.12 "HgN/A
2:00 AM63 °FPassing clouds.3 mph68%30.12 "HgN/A
1:30 AM64 °FPassing clouds.5 mph64%30.09 "HgN/A
1:00 AM63 °FPassing clouds.6 mph68%30.09 "HgN/A
12:30 AM63 °FPassing clouds.6 mph68%30.09 "HgN/A
12:00 AM61 °FClear.5 mph68%30.09 "Hg10 mi
11:30 PM
Thu, Sep 29
63 °FClear.8 mph64%30.09 "Hg10 mi
11:00 PM63 °FClear.9 mph64%30.09 "Hg10 mi
10:30 PM64 °FClear.9 mph60%30.09 "Hg10 mi
10:00 PM66 °FClear.7 mph56%30.09 "Hg10 mi
9:30 PM68 °FClear.8 mph53%30.09 "Hg10 mi
9:00 PM68 °FClear.7 mph53%30.09 "Hg10 mi
Weather by CustomWeather, © 2016

See weather overviewHow to use our weather pages